Regional Weather Roundup
Issued by NWS

Home | Current Version | Previous Version | Graphics & Text | Print | Product List | Glossary On
Versions: 1 2 3 4 5 6 7 8 9 10 11 12 13 14 15 16 17 18 19 20 21 22 23 24 25 26 27 28 29 30 31 32 33 34 35 36 37 38 39 40 41 42 43 44 45 46 47 48 49 50
000
ASUS45 KABQ 240501
RWRNM
NEW MEXICO REGIONAL WEATHER ROUNDUP
NATIONAL WEATHER SERVICE ALBUQUERQUE NM
1000 PM MST MON JAN 23 2017

NOTE: "FAIR" MEANS FEW OR NO CLOUDS BELOW 12,000 FEET AGL WITH NO
       SIGNIFICANT WEATHER OR OBSTRUCTIONS TO VISION.

      THIS PRODUCT IS RELEASED AS TWO VERSIONS.  ONE VERSION NEAR
      THE TOP OF THE HOUR CONTAINING PRELIMINARY DATA FROM ALBUQUERQUE
      AND OTHER STATIONS.  A FINAL VERSION WITH ADDITIONAL DATA IS
      ISSUED ABOUT 10 MINUTES AFTER THE HOUR.

NMZ501-503-504-510>518-240600-
NORTHWEST PLATEAU/NORTHCENTRAL MOUNTAINS

CITY           SKY/WX    TMP DP  RH WIND       PRES   REMARKS
FARMINGTON     LGT SNOW  30  29  96 S6        29.67S FOG     WCI  24
LOS ALAMOS     LGT RAIN  38  30  72 SW16G23   29.61S WCI  29
SANTA FE       CLOUDY    43  27  53 SW9       29.60F
TAOS           CLOUDY    34  25  69 SW12      29.60S WCI  25
ANGEL FIRE     LGT SNOW  30  28  90 S10       29.59F WCI  21

$$
NMZ402-403-502-505>509-240600-
WESTCENTRAL MOUNTAINS/SOUTHWEST MOUNTAINS

CITY           SKY/WX    TMP DP  RH WIND       PRES   REMARKS
GALLUP         LGT SNOW  32  28  85 SW8       29.67F FOG     WCI  25
GRANTS         LGT SNOW  32  32  99 N6        29.69F WCI  27
SILVER CITY    FAIR      46  32  59 W8        29.74F

$$
NMZ407-409-411-412-240600-
SOUTHERN DESERTS

CITY           SKY/WX    TMP DP  RH WIND       PRES   REMARKS
DEMING         FAIR      51  33  50 SW14      29.73S
LAS CRUCES     FAIR      54  31  42 SW15      29.74F
ALAMOGORDO     FAIR      55  28  35 S22G30    29.72F
T OR C         FAIR      51  30  44 S15       29.67F

$$
NMZ519>523-240600-
CENTRAL VALLEYS/CENTRAL HIGHLANDS

CITY           SKY/WX    TMP DP  RH WIND       PRES   REMARKS
ALBUQUERQUE    MOCLDY    45  30  55 S12       29.63S
DOUBLE EAGLE   CLOUDY    45  28  53 SW15      29.63S
MORIARTY ARPT  MOCLDY    42  29  59 S15       29.64F
CLINES CORNERS FAIR      39  28  64 SW31G39   29.65F WCI  27
BELEN          MOCLDY    50  26  39 SW26      29.63F
SOCORRO        FAIR      50  30  45 S10       29.65S

$$
NMZ524>526-539-540-240600-
SOUTHCENTRAL MOUNTAINS

CITY           SKY/WX    TMP DP  RH WIND       PRES   REMARKS
RUIDOSO        NOT AVBL

$$
NMZ527>531-240600-
NORTHEAST HIGHLANDS/NORTHEAST PLAINS

CITY           SKY/WX    TMP DP  RH WIND       PRES   REMARKS
LAS VEGAS      CLOUDY    39  25  57 S17       29.61F WCI  30
RATON          FAIR      31  24  75 S12       29.55F WCI  22
CLAYTON        FAIR      42  33  70 S17       29.58F

$$
NMZ532>537-240600-
EASTCENTRAL PLAINS

CITY           SKY/WX    TMP DP  RH WIND       PRES   REMARKS
TUCUMCARI      FAIR      50  29  44 SW16      29.60F
CANNON AFB     FAIR      47  29  50 SW12      29.67F
CLOVIS AIRPORT FAIR      37  27  65 S10       29.68F WCI  30

$$
NMZ028-029-538-240600-
SOUTHEAST PLAINS

CITY           SKY/WX    TMP DP  RH WIND       PRES   REMARKS
ROSWELL        FAIR      54  25  32 SW16      29.67F
ARTESIA        FAIR      50  27  40 SW14      29.70F
CARLSBAD       FAIR      49  28  44 SW10      29.70F


$$




USA.gov is the U.S. government's official web portal to all federal, state and local government web resources and services.